DGMMC EDJA-EDDN

Flight info

Callsign DGMMC
Flight time 0h 56m
Altitude 5000
Route LOCAL VFR
Aircraft DA42/L-V/N

Departure

Time 2026-04-24 11:41
Airport Memmingen Allgau Airport (EDJA)

Arrival

Time 2026-04-24 12:37
Airport Nuremberg Airport (EDDN)
Time Latitude Longitude Altitude Speed Heading
2026-04-24 11:32 47.98633 10.23687 2074 ft 0 kts 323°
2026-04-24 11:38 47.98642 10.23677 2074 ft 4 kts 324°
2026-04-24 11:39 47.98670 10.23682 2073 ft 6 kts 51°
2026-04-24 11:39 47.98703 10.23759 2073 ft 11 kts 59°
2026-04-24 11:39 47.98730 10.23827 2073 ft 0 kts 57°
2026-04-24 11:40 47.98732 10.23831 2073 ft 5 kts 53°
2026-04-24 11:40 47.98771 10.23827 2072 ft 9 kts 327°
2026-04-24 11:40 47.98803 10.23769 2072 ft 9 kts 258°
2026-04-24 11:40 47.98667 10.23413 2073 ft 69 kts 240°
2026-04-24 11:41 47.98355 10.22651 2187 ft 93 kts 238°
2026-04-24 11:41 47.98025 10.21834 2501 ft 91 kts 253°
2026-04-24 11:41 47.98183 10.21023 2863 ft 86 kts 319°
2026-04-24 11:41 47.98752 10.20701 3103 ft 94 kts 353°
2026-04-24 11:42 47.99417 10.20668 3550 ft 95 kts
2026-04-24 11:42 48.00083 10.20820 3943 ft 107 kts
2026-04-24 11:42 48.00931 10.21035 3981 ft 136 kts
2026-04-24 11:42 48.01912 10.21275 4010 ft 152 kts
2026-04-24 11:43 48.02969 10.21533 3985 ft 151 kts
2026-04-24 11:43 48.03984 10.21782 3983 ft 146 kts
2026-04-24 11:43 48.04974 10.22025 3981 ft 143 kts
2026-04-24 11:43 48.05950 10.22265 3983 ft 142 kts
2026-04-24 11:44 48.06914 10.22501 3985 ft 139 kts
2026-04-24 11:44 48.07863 10.22734 3985 ft 138 kts
2026-04-24 11:44 48.08814 10.22966 3989 ft 139 kts
2026-04-24 11:44 48.09807 10.23214 3990 ft 150 kts
2026-04-24 11:45 48.10822 10.23469 3984 ft 145 kts
2026-04-24 11:45 48.11803 10.23711 3993 ft 141 kts
2026-04-24 11:45 48.12763 10.23946 3990 ft 144 kts
2026-04-24 11:45 48.13744 10.24183 3994 ft 142 kts
2026-04-24 11:46 48.14747 10.24424 3994 ft 153 kts
2026-04-24 11:46 48.15796 10.24674 3996 ft 153 kts
2026-04-24 11:46 48.16845 10.24924 3984 ft 150 kts
2026-04-24 11:46 48.17799 10.25520 3995 ft 150 kts 29°
2026-04-24 11:47 48.18766 10.26121 4104 ft 147 kts 10°
2026-04-24 11:47 48.19693 10.26216 4448 ft 121 kts
2026-04-24 11:47 48.20459 10.26240 4826 ft 101 kts 358°
2026-04-24 11:47 48.21157 10.26242 5074 ft 102 kts 358°
2026-04-24 11:48 48.21866 10.26233 5334 ft 101 kts 358°
2026-04-24 11:48 48.22577 10.26222 5691 ft 103 kts 358°
2026-04-24 11:48 48.23280 10.26207 5972 ft 102 kts 358°
2026-04-24 11:48 48.23988 10.26190 6264 ft 102 kts 358°
2026-04-24 11:49 48.24704 10.26173 6550 ft 103 kts 358°
2026-04-24 11:49 48.25422 10.26155 6829 ft 103 kts 359°
2026-04-24 11:49 48.26142 10.26136 7096 ft 104 kts 358°
2026-04-24 11:49 48.26861 10.26118 7337 ft 103 kts 359°
2026-04-24 11:50 48.27586 10.26101 7595 ft 104 kts 358°
2026-04-24 11:50 48.28313 10.26084 7813 ft 104 kts 358°
2026-04-24 11:50 48.29040 10.26062 7987 ft 108 kts 359°
2026-04-24 11:50 48.29842 10.26042 8003 ft 123 kts 358°
2026-04-24 11:51 48.30759 10.26019 7989 ft 139 kts 358°
2026-04-24 11:51 48.31745 10.25993 7989 ft 144 kts 358°
2026-04-24 11:51 48.32770 10.25967 7989 ft 149 kts 358°
2026-04-24 11:51 48.33821 10.25940 7992 ft 152 kts 358°
2026-04-24 11:52 48.34889 10.25912 7992 ft 154 kts 358°
2026-04-24 11:52 48.35968 10.25884 7995 ft 156 kts 358°
2026-04-24 11:52 48.37070 10.25856 7996 ft 161 kts 358°
2026-04-24 11:52 48.38190 10.25827 7994 ft 160 kts 358°
2026-04-24 11:53 48.39311 10.25799 7994 ft 161 kts 358°
2026-04-24 11:53 48.40439 10.25766 8000 ft 163 kts 359°
2026-04-24 11:53 48.41569 10.25739 8002 ft 166 kts 358°
2026-04-24 11:53 48.42345 10.25717 7998 ft 165 kts 358°
2026-04-24 11:54 48.43865 10.25680 8005 ft 164 kts 358°
2026-04-24 11:54 48.44991 10.25651 8001 ft 160 kts 358°
2026-04-24 11:54 48.46108 10.25622 7999 ft 160 kts 358°
2026-04-24 11:54 48.46853 10.25602 7998 ft 157 kts 358°
2026-04-24 11:55 48.47929 10.25573 8005 ft 154 kts 358°
2026-04-24 11:55 48.48986 10.25545 8000 ft 154 kts 358°
2026-04-24 11:55 48.50051 10.25518 7997 ft 152 kts 358°
2026-04-24 11:55 48.51101 10.25493 7996 ft 150 kts 358°
2026-04-24 11:56 48.52148 10.25466 8001 ft 150 kts 358°
2026-04-24 11:56 48.53200 10.25437 8006 ft 153 kts 358°
2026-04-24 11:56 48.54270 10.25409 8010 ft 155 kts 358°
2026-04-24 11:56 48.55357 10.25382 8002 ft 156 kts 358°
2026-04-24 11:57 48.56425 10.25354 8000 ft 152 kts 357°
2026-04-24 11:57 48.57475 10.25326 8002 ft 150 kts 358°
2026-04-24 11:57 48.58519 10.25299 8004 ft 150 kts 358°
2026-04-24 11:57 48.59563 10.25273 8010 ft 150 kts 357°
2026-04-24 11:58 48.60603 10.25243 8005 ft 152 kts 357°
2026-04-24 11:58 48.61652 10.25218 8004 ft 150 kts 357°
2026-04-24 11:58 48.62702 10.25190 8010 ft 152 kts 357°
2026-04-24 11:58 48.63762 10.25162 8006 ft 152 kts 357°
2026-04-24 11:59 48.64821 10.25134 8008 ft 152 kts 357°
2026-04-24 11:59 48.65867 10.25108 8003 ft 149 kts 358°
2026-04-24 11:59 48.66894 10.25081 8011 ft 147 kts 357°
2026-04-24 11:59 48.67924 10.25054 8005 ft 148 kts 357°
2026-04-24 12:00 48.68954 10.25027 8007 ft 147 kts 357°
2026-04-24 12:00 48.69975 10.25001 8019 ft 148 kts 358°
2026-04-24 12:00 48.71030 10.24971 8017 ft 155 kts 358°
2026-04-24 12:00 48.72124 10.24943 8004 ft 157 kts 358°
2026-04-24 12:01 48.73202 10.24916 8002 ft 153 kts 357°
2026-04-24 12:01 48.74250 10.24889 8008 ft 148 kts 357°
2026-04-24 12:01 48.75256 10.24863 7999 ft 144 kts 357°
2026-04-24 12:01 48.76251 10.24836 8004 ft 141 kts 357°
2026-04-24 12:02 48.77223 10.24810 8006 ft 138 kts 357°
2026-04-24 12:02 48.78195 10.24784 8010 ft 141 kts 357°
2026-04-24 12:02 48.79175 10.24760 8010 ft 141 kts 357°
2026-04-24 12:02 48.80168 10.24731 8013 ft 144 kts 357°
2026-04-24 12:03 48.81179 10.24705 8005 ft 145 kts 357°
2026-04-24 12:03 48.82179 10.24680 8010 ft 144 kts 358°
2026-04-24 12:03 48.83171 10.24655 8003 ft 144 kts 357°
2026-04-24 12:03 48.84163 10.24627 8004 ft 141 kts 357°
2026-04-24 12:04 48.85135 10.24602 8006 ft 138 kts 357°
2026-04-24 12:04 48.86088 10.24577 8008 ft 136 kts 356°
2026-04-24 12:04 48.87048 10.24550 8016 ft 138 kts 356°
2026-04-24 12:04 48.88037 10.24524 8011 ft 145 kts 356°
2026-04-24 12:05 48.89026 10.24500 8009 ft 143 kts 357°
2026-04-24 12:05 48.90016 10.24475 8005 ft 141 kts 356°
2026-04-24 12:05 48.90985 10.24447 8018 ft 139 kts 357°
2026-04-24 12:05 48.91956 10.24422 8013 ft 139 kts 357°
2026-04-24 12:06 48.92920 10.24396 8013 ft 138 kts 356°
2026-04-24 12:06 48.93871 10.24371 8008 ft 136 kts 357°
2026-04-24 12:06 48.94830 10.24345 8016 ft 140 kts 357°
2026-04-24 12:06 48.95803 10.24320 8012 ft 140 kts 356°
2026-04-24 12:07 48.96791 10.24293 8019 ft 143 kts 358°
2026-04-24 12:07 48.97787 10.24268 8006 ft 141 kts 357°
2026-04-24 12:07 48.98765 10.24243 8008 ft 141 kts 357°
2026-04-24 12:07 48.99728 10.24217 8013 ft 140 kts 357°
2026-04-24 12:08 49.00701 10.24191 8008 ft 139 kts 356°
2026-04-24 12:08 49.01663 10.24166 7914 ft 140 kts 357°
2026-04-24 12:08 49.02659 10.24139 7672 ft 145 kts 357°
2026-04-24 12:08 49.03672 10.24113 7426 ft 146 kts 357°
2026-04-24 12:09 49.04707 10.24090 7189 ft 152 kts 357°
2026-04-24 12:09 49.05763 10.24055 6945 ft 152 kts 356°
2026-04-24 12:09 49.06818 10.24028 6703 ft 151 kts 357°
2026-04-24 12:09 49.07876 10.23999 6454 ft 152 kts 356°
2026-04-24 12:10 49.08932 10.23981 6207 ft 153 kts 360°
2026-04-24 12:10 49.09890 10.24677 5951 ft 160 kts 45°
2026-04-24 12:10 49.10248 10.26315 5708 ft 172 kts 85°
2026-04-24 12:11 49.10085 10.29960 5206 ft 172 kts 91°
2026-04-24 12:11 49.09998 10.31758 5028 ft 166 kts 91°
2026-04-24 12:11 49.09915 10.33450 5016 ft 157 kts 91°
2026-04-24 12:11 49.09831 10.35046 5005 ft 144 kts 91°
2026-04-24 12:12 49.09745 10.36512 5004 ft 134 kts 91°
2026-04-24 12:12 49.09738 10.37886 5009 ft 125 kts 82°
2026-04-24 12:12 49.09783 10.39196 5010 ft 123 kts 82°
2026-04-24 12:12 49.09828 10.40480 5020 ft 120 kts 82°
2026-04-24 12:13 49.09861 10.41792 5011 ft 128 kts 84°
2026-04-24 12:13 49.09867 10.43158 5015 ft 128 kts 84°
2026-04-24 12:13 49.09870 10.44531 5010 ft 129 kts 85°
2026-04-24 12:13 49.09877 10.45938 5027 ft 137 kts 85°
2026-04-24 12:14 49.09879 10.47397 5027 ft 138 kts 85°
2026-04-24 12:14 49.09884 10.48874 5008 ft 140 kts 85°
2026-04-24 12:14 49.09892 10.50306 5015 ft 131 kts 84°
2026-04-24 12:14 49.09891 10.51691 5018 ft 134 kts 85°
2026-04-24 12:15 49.09897 10.53109 5028 ft 134 kts 85°
2026-04-24 12:15 49.09914 10.54529 5011 ft 130 kts 85°
2026-04-24 12:15 49.09927 10.55929 5016 ft 138 kts 85°
2026-04-24 12:15 49.09944 10.57466 5032 ft 151 kts 85°
2026-04-24 12:16 49.09970 10.59195 5005 ft 169 kts 85°
2026-04-24 12:16 49.09999 10.60979 5027 ft 169 kts 84°
2026-04-24 12:16 49.10029 10.62790 5007 ft 169 kts 85°
2026-04-24 12:16 49.10056 10.64551 5037 ft 164 kts 85°
2026-04-24 12:17 49.10076 10.66271 5046 ft 166 kts 85°
2026-04-24 12:17 49.10103 10.68054 5041 ft 168 kts 85°
2026-04-24 12:17 49.10138 10.69848 5045 ft 172 kts 84°
2026-04-24 12:17 49.10171 10.71679 5034 ft 171 kts 85°
2026-04-24 12:18 49.10193 10.73490 5051 ft 172 kts 85°
2026-04-24 12:18 49.10213 10.75350 5031 ft 175 kts 85°
2026-04-24 12:18 49.10239 10.77184 5026 ft 171 kts 85°
2026-04-24 12:18 49.10263 10.78984 5034 ft 169 kts 84°
2026-04-24 12:19 49.10288 10.80802 5042 ft 173 kts 84°
2026-04-24 12:19 49.10310 10.82648 5027 ft 174 kts 85°
2026-04-24 12:19 49.10329 10.84484 5028 ft 174 kts 84°
2026-04-24 12:19 49.10358 10.86346 5013 ft 173 kts 85°
2026-04-24 12:20 49.10386 10.88148 5013 ft 170 kts 85°
2026-04-24 12:20 49.10408 10.89936 5017 ft 168 kts 85°
2026-04-24 12:20 49.10431 10.91704 5015 ft 166 kts 85°
2026-04-24 12:20 49.10456 10.93464 5009 ft 165 kts 85°
2026-04-24 12:21 49.10479 10.95212 5025 ft 166 kts 85°
2026-04-24 12:21 49.10505 10.97028 4987 ft 173 kts 86°
2026-04-24 12:21 49.10538 10.98888 4751 ft 176 kts 85°
2026-04-24 12:21 49.10581 11.00728 4478 ft 173 kts 85°
2026-04-24 12:22 49.10614 11.02530 4218 ft 167 kts 85°
2026-04-24 12:22 49.10646 11.04268 3958 ft 161 kts 85°
2026-04-24 12:22 49.10679 11.05977 3709 ft 160 kts 85°
2026-04-24 12:22 49.10720 11.07682 3484 ft 166 kts 85°
2026-04-24 12:23 49.10774 11.09501 3217 ft 174 kts 85°
2026-04-24 12:23 49.10828 11.11359 2998 ft 178 kts 86°
2026-04-24 12:23 49.10883 11.13190 3000 ft 168 kts 84°
2026-04-24 12:23 49.10925 11.14960 3009 ft 168 kts 86°
2026-04-24 12:24 49.10988 11.16737 3036 ft 164 kts 84°
2026-04-24 12:24 49.11043 11.18337 3266 ft 140 kts 85°
2026-04-24 12:24 49.11073 11.19691 3705 ft 118 kts 85°
2026-04-24 12:24 49.11213 11.20890 3975 ft 111 kts 48°
2026-04-24 12:25 49.11910 11.21336 3997 ft 118 kts 346°
2026-04-24 12:25 49.12570 11.20622 4000 ft 120 kts 316°
2026-04-24 12:25 49.13193 11.19742 3991 ft 126 kts 316°
2026-04-24 12:25 49.13840 11.18825 4000 ft 129 kts 317°
2026-04-24 12:26 49.14522 11.17849 3977 ft 139 kts 316°
2026-04-24 12:26 49.15309 11.16946 3791 ft 149 kts 329°
2026-04-24 12:26 49.16306 11.16339 3513 ft 155 kts 341°
2026-04-24 12:26 49.17375 11.16192 3263 ft 154 kts 354°
2026-04-24 12:27 49.18443 11.16191 3016 ft 153 kts 357°
2026-04-24 12:27 49.19457 11.16228 2994 ft 139 kts 358°
2026-04-24 12:27 49.20404 11.16274 2991 ft 134 kts 358°
2026-04-24 12:27 49.21316 11.16319 2996 ft 134 kts 357°
2026-04-24 12:28 49.22239 11.16371 2991 ft 131 kts 357°
2026-04-24 12:28 49.23135 11.16420 2992 ft 127 kts 357°
2026-04-24 12:28 49.24011 11.16466 3004 ft 127 kts 356°
2026-04-24 12:28 49.24898 11.16513 2991 ft 127 kts 357°
2026-04-24 12:29 49.25813 11.16559 3003 ft 138 kts 356°
2026-04-24 12:29 49.26770 11.16615 2978 ft 133 kts 356°
2026-04-24 12:29 49.27663 11.16666 2980 ft 124 kts 358°
2026-04-24 12:29 49.28515 11.16712 2986 ft 125 kts 357°
2026-04-24 12:30 49.29379 11.16756 2987 ft 124 kts 356°
2026-04-24 12:30 49.30242 11.16802 2986 ft 124 kts 356°
2026-04-24 12:30 49.31103 11.16849 2987 ft 123 kts 357°
2026-04-24 12:30 49.31946 11.16896 2988 ft 123 kts 356°
2026-04-24 12:31 49.32801 11.16942 2987 ft 124 kts 357°
2026-04-24 12:31 49.33666 11.16988 2983 ft 124 kts 357°
2026-04-24 12:31 49.34522 11.17035 2986 ft 123 kts 356°
2026-04-24 12:31 49.35371 11.17081 3005 ft 123 kts 358°
2026-04-24 12:32 49.36297 11.17128 2985 ft 136 kts 356°
2026-04-24 12:32 49.37277 11.17182 2981 ft 146 kts 356°
2026-04-24 12:32 49.38259 11.17238 2985 ft 137 kts 357°
2026-04-24 12:32 49.39214 11.17291 3000 ft 141 kts 359°
2026-04-24 12:33 49.40226 11.17343 3000 ft 149 kts 357°
2026-04-24 12:33 49.41264 11.17401 2999 ft 151 kts 357°
2026-04-24 12:33 49.42314 11.17461 2985 ft 143 kts 357°
2026-04-24 12:33 49.43266 11.17511 2977 ft 135 kts 357°
2026-04-24 12:34 49.44179 11.17532 2982 ft 125 kts 356°
2026-04-24 12:34 49.45016 11.17562 2981 ft 115 kts 356°
2026-04-24 12:34 49.45812 11.17554 2835 ft 110 kts 352°
2026-04-24 12:34 49.46572 11.17410 2541 ft 110 kts 342°
2026-04-24 12:35 49.47288 11.17044 2408 ft 105 kts 335°
2026-04-24 12:35 49.47958 11.16609 2118 ft 101 kts 330°
2026-04-24 12:35 49.48477 11.15973 1902 ft 93 kts 311°
2026-04-24 12:35 49.48857 11.15188 1789 ft 90 kts 302°
2026-04-24 12:36 49.49137 11.14334 1674 ft 90 kts 290°
2026-04-24 12:36 49.49288 11.13445 1596 ft 86 kts 282°
2026-04-24 12:36 49.49403 11.12530 1534 ft 88 kts 280°
2026-04-24 12:36 49.49499 11.11588 1386 ft 88 kts 277°
2026-04-24 12:37 49.49586 11.10668 1243 ft 87 kts 278°
2026-04-24 12:37 49.49676 11.09756 1118 ft 84 kts 279°
2026-04-24 12:37 49.49760 11.08919 1050 ft 69 kts 283°
2026-04-24 12:37 49.49820 11.08330 1039 ft 48 kts 278°
2026-04-24 12:38 49.49869 11.07819 1043 ft 49 kts 279°
2026-04-24 12:38 49.49924 11.07264 1036 ft 51 kts 279°
2026-04-24 12:38 49.49908 11.07015 1030 ft 14 kts 194°
2026-04-24 12:39 49.49766 11.07087 1029 ft 0 kts 138°
2026-04-24 12:40 49.49746 11.07136 1030 ft 9 kts 105°
2026-04-24 12:40 49.49721 11.07224 1031 ft 10 kts 145°
2026-04-24 12:40 49.49644 11.07222 1029 ft 13 kts 188°
2026-04-24 12:41 49.49546 11.07200 1026 ft 13 kts 190°
2026-04-24 12:41 49.49508 11.07132 1023 ft 7 kts 276°
2026-04-24 12:41 49.49515 11.07057 1023 ft 11 kts 280°
2026-04-24 12:41 49.49524 11.06972 1023 ft 11 kts 280°
2026-04-24 12:42 49.49481 11.06917 1022 ft 10 kts 189°
2026-04-24 12:42 49.49427 11.06954 1018 ft 0 kts 89°